^^
Your Local Weather - Clay, NY Station Historical Data
Daily Summary for February 17, 2017 Units:  Metric    English   Both
« Previous Day
Next Day »
Daily Weekly Monthly Yearly Custom
  High: Low: Average:
Temperature: -0.4 °C -8.7 °C -4.7 °C
Dew Point: -5.8 °C -10.5 °C -7.7 °C
Humidity: 89% 64% 80%
Wind Speed: 8km/h 0km/h 1.6km/h
Wind Gust: 17.7km/h - -
Wind- - West
Pressure: 1013.1 hPa 1009.4 hPa -
Precipitation: 2.79 mm    
Historical Graphs
 
 
Tabular Data for February 17, 2017
Time Temperature Dew Point Pressure Wind Wind Speed Wind Gust Humidity Rainfall Rate (Hourly) solar
00:02 -3.8 °C -7.4 °C 1010.7 hPa NW 6.4 km/h 9.7 km/h 76% 0 mm 0 W/m2
00:08 -3.9 °C -7.3 °C 1010.7 hPa WNW 4.8 km/h 11.3 km/h 77% 0 mm 0 W/m2
00:14 -3.9 °C -7.3 °C 1010.7 hPa WNW 4.8 km/h 4.8 km/h 77% 0 mm 0 W/m2
00:20 -3.9 °C -7.3 °C 1010.7 hPa WNW 4.8 km/h 4.8 km/h 77% 0 mm 0 W/m2
00:26 -3.9 °C -7.3 °C 1010.7 hPa WNW 4.8 km/h 4.8 km/h 77% 0 mm 0 W/m2
00:32 -3.9 °C -7.3 °C 1010.7 hPa WNW 3.2 km/h 4.8 km/h 77% 0 mm 0 W/m2
00:38 -3.9 °C -7.2 °C 1011.1 hPa WNW 4.8 km/h 9.7 km/h 78% 0 mm 0 W/m2
00:44 -3.9 °C -7.2 °C 1011.1 hPa WNW 4.8 km/h 6.4 km/h 78% 0 mm 0 W/m2
00:50 -3.9 °C -7.2 °C 1011.1 hPa WNW 4.8 km/h 4.8 km/h 78% 0 mm 0 W/m2
00:56 -4 °C -7.3 °C 1011.1 hPa NW 4.8 km/h 12.9 km/h 78% 0 mm 0 W/m2
01:02 -4 °C -7.4 °C 1011.1 hPa WNW 6.4 km/h 11.3 km/h 77% 0 mm 0 W/m2
01:08 -4.1 °C -7.7 °C 1011.1 hPa WNW 8 km/h 17.7 km/h 76% 0 mm 0 W/m2
01:14 -4.1 °C -7.7 °C 1011.1 hPa NW 4.8 km/h 6.4 km/h 76% 0 mm 0 W/m2
01:20 -4.1 °C -7.7 °C 1011.1 hPa NNW 6.4 km/h 6.4 km/h 76% 0 mm 0 W/m2
01:26 -4.2 °C -7.8 °C 1011.1 hPa West 6.4 km/h 8 km/h 76% 0 mm 0 W/m2
01:32 -4.2 °C -8 °C 1011.1 hPa WNW 4.8 km/h 8 km/h 75% 0 mm 0 W/m2
01:38 -4.3 °C -8.1 °C 1011.1 hPa West 6.4 km/h 8 km/h 75% 0 mm 0 W/m2
01:44 -4.4 °C -8.2 °C 1011.1 hPa NW 6.4 km/h 8 km/h 75% 0 mm 0 W/m2
01:50 -4.4 °C -8.1 °C 1011.1 hPa WNW 4.8 km/h 8 km/h 76% 0 mm 0 W/m2
01:56 -4.4 °C -8.2 °C 1011.1 hPa NW 4.8 km/h 8 km/h 75% 0 mm 0 W/m2
02:02 -4.6 °C -8.3 °C 1011.1 hPa WNW 6.4 km/h 9.7 km/h 75% 0 mm 0 W/m2
02:08 -4.6 °C -8.4 °C 1011.1 hPa WNW 8 km/h 14.5 km/h 75% 0 mm 0 W/m2
02:14 -4.7 °C -8.4 °C 1011.1 hPa NW 8 km/h 11.3 km/h 75% 0 mm 0 W/m2
02:20 -4.7 °C -8.5 °C 1011.1 hPa WNW 6.4 km/h 8 km/h 75% 0 mm 0 W/m2
02:26 -4.8 °C -8.4 °C 1011.1 hPa WNW 4.8 km/h 8 km/h 76% 0 mm 0 W/m2
02:32 -4.9 °C -8.4 °C 1011.1 hPa NW 6.4 km/h 6.4 km/h 76% 0 mm 0 W/m2
02:38 -4.9 °C -8.5 °C 1011.1 hPa WNW 6.4 km/h 9.7 km/h 76% 0 mm 0 W/m2
02:44 -4.9 °C -8.5 °C 1011.1 hPa WNW 4.8 km/h 11.3 km/h 76% 0 mm 0 W/m2
02:50 -5 °C -8.4 °C 1011.1 hPa WNW 6.4 km/h 8 km/h 77% 0 mm 0 W/m2
02:56 -5.1 °C -8.5 °C 1011.1 hPa WNW 4.8 km/h 8 km/h 77% 0 mm 0 W/m2
03:02 -5.2 °C -8.6 °C 1011.1 hPa WNW 4.8 km/h 4.8 km/h 77% 0 mm 0 W/m2
03:08 -5.2 °C -8.4 °C 1011.1 hPa NW 6.4 km/h 9.7 km/h 78% 0 mm 0 W/m2
03:14 -5.2 °C -8.4 °C 1011.1 hPa West 6.4 km/h 6.4 km/h 78% 0 mm 0 W/m2
03:20 -5.2 °C -8.4 °C 1011.1 hPa West 4.8 km/h 9.7 km/h 78% 0 mm 0 W/m2
03:26 -5.2 °C -8.4 °C 1011.1 hPa WNW 4.8 km/h 9.7 km/h 78% 0 mm 0 W/m2
03:32 -5.3 °C -8.5 °C 1011.4 hPa WNW 1.6 km/h 3.2 km/h 78% 0 mm 0 W/m2
03:38 -5.3 °C -8.5 °C 1011.4 hPa NW 3.2 km/h 3.2 km/h 78% 0 mm 0 W/m2
03:44 -5.3 °C -8.4 °C 1011.4 hPa NW 3.2 km/h 3.2 km/h 79% 0 mm 0 W/m2
03:50 -5.3 °C -8.4 °C 1011.4 hPa NW 1.6 km/h 1.6 km/h 79% 0 mm 0 W/m2
03:56 -5.4 °C -8.4 °C 1011.7 hPa NW 1.6 km/h 4.8 km/h 79% 0 mm 0 W/m2
04:02 -5.4 °C -8.4 °C 1011.7 hPa NW 1.6 km/h 3.2 km/h 79% 0 mm 0 W/m2
04:08 -5.4 °C -8.4 °C 1011.7 hPa NW 1.6 km/h 3.2 km/h 79% 0 mm 0 W/m2
04:20 -5.3 °C -8.4 °C 1011.7 hPa West 3.2 km/h 4.8 km/h 79% 0 mm 0 W/m2
04:26 -5.3 °C -8.2 °C 1011.7 hPa WNW 3.2 km/h 4.8 km/h 80% 0 mm 0 W/m2
04:38 -5.3 °C -8.2 °C 1012.1 hPa WNW 1.6 km/h 4.8 km/h 80% 0 mm 0 W/m2
04:44 -5.3 °C -8.4 °C 1012.1 hPa WNW 3.2 km/h 3.2 km/h 79% 0 mm 0 W/m2
04:50 -5.3 °C -8.2 °C 1012.1 hPa WNW 3.2 km/h 6.4 km/h 80% 0 mm 0 W/m2
04:56 -5.4 °C -8.3 °C 1012.1 hPa WNW 1.6 km/h 6.4 km/h 80% 0 mm 0 W/m2
05:02 -5.4 °C -8.3 °C 1012.1 hPa WNW 1.6 km/h 1.6 km/h 80% 0 mm 0 W/m2
05:08 -5.4 °C -8.2 °C 1012.1 hPa WNW 1.6 km/h 1.6 km/h 81% 0 mm 0 W/m2
05:14 -5.4 °C -8.2 °C 1012.1 hPa Calm   1.6 km/h 81% 0 mm 0 W/m2
05:20 -5.5 °C -8.1 °C 1012.1 hPa Calm     82% 0 mm 0 W/m2
05:26 -5.5 °C -8.1 °C 1012.1 hPa Calm     82% 0 mm 0 W/m2
05:32 -5.6 °C -8 °C 1012.1 hPa Calm     83% 0 mm 0 W/m2
05:38 -5.6 °C -7.8 °C 1012.1 hPa Calm     84% 0 mm 0 W/m2
05:44 -5.6 °C -7.7 °C 1012.1 hPa Calm   1.6 km/h 85% 0 mm 0 W/m2
05:50 -5.7 °C -7.8 °C 1012.1 hPa Calm     85% 0 mm 0 W/m2
05:56 -5.7 °C -7.6 °C 1012.1 hPa Calm   1.6 km/h 86% 0 mm 0 W/m2
06:02 -5.7 °C -7.6 °C 1012.1 hPa Calm     86% 0 mm 0 W/m2
06:08 -5.7 °C -7.5 °C 1012.1 hPa WNW 1.6 km/h 4.8 km/h 87% 0 mm 0 W/m2
06:14 -5.7 °C -7.5 °C 1012.1 hPa WNW 1.6 km/h 1.6 km/h 87% 0 mm 0 W/m2
06:20 -5.7 °C -7.5 °C 1012.1 hPa Calm     87% 0 mm 0 W/m2
06:26 -5.7 °C -7.5 °C 1012.1 hPa Calm   3.2 km/h 87% 0 mm 0 W/m2
06:32 -5.7 °C -7.5 °C 1012.1 hPa West 1.6 km/h 1.6 km/h 87% 0 mm 0 W/m2
06:38 -5.6 °C -7.4 °C 1012.1 hPa West 1.6 km/h 1.6 km/h 87% 0 mm 0 W/m2
06:44 -5.6 °C -7.4 °C 1012.1 hPa West 1.6 km/h 3.2 km/h 87% 0 mm 0 W/m2
06:50 -5.6 °C -7.4 °C 1012.1 hPa West 1.6 km/h 1.6 km/h 87% 0 mm 0 W/m2
06:56 -5.6 °C -7.4 °C 1012.1 hPa West 1.6 km/h 1.6 km/h 87% 0 mm 0 W/m2
07:02 -5.6 °C -7.5 °C 1012.1 hPa Calm   1.6 km/h 86% 0 mm 5 W/m2
07:08 -5.6 °C -7.5 °C 1012.1 hPa Calm   1.6 km/h 86% 0 mm 5 W/m2
07:14 -5.6 °C -7.5 °C 1012.1 hPa Calm     86% 0 mm 7 W/m2
07:20 -5.5 °C -7.4 °C 1012.4 hPa Calm   1.6 km/h 86% 0 mm 9 W/m2
07:26 -5.5 °C -7.4 °C 1012.4 hPa West 1.6 km/h 3.2 km/h 86% 0 mm 12 W/m2
07:32 -5.4 °C -7.4 °C 1012.8 hPa Calm   1.6 km/h 86% 0 mm 14 W/m2
07:38 -5.4 °C -7.4 °C 1012.8 hPa Calm   1.6 km/h 86% 0 mm 16 W/m2
07:44 -5.4 °C -7.2 °C 1012.8 hPa Calm   1.6 km/h 87% 0 mm 18 W/m2
07:50 -5.4 °C -7.2 °C 1012.8 hPa Calm     87% 0 mm 25 W/m2
07:56 -5.3 °C -7.2 °C 1013.1 hPa Calm     87% 0 mm 26 W/m2
08:02 -5.3 °C -6.9 °C 1013.1 hPa Calm     88% 0 mm 37 W/m2
08:08 -5.2 °C -6.9 °C 1013.1 hPa Calm   1.6 km/h 88% 0 mm 44 W/m2
08:14 -5.2 °C -6.8 °C 1013.1 hPa Calm     88% 0 mm 44 W/m2
08:20 -5.1 °C -6.8 °C 1013.1 hPa Calm     88% 0 mm 44 W/m2
08:26 -5.1 °C -6.9 °C 1013.1 hPa Calm   3.2 km/h 87% 0 mm 47 W/m2
08:32 -5 °C -6.8 °C 1013.1 hPa West 1.6 km/h 3.2 km/h 87% 0 mm 54 W/m2
08:38 -5 °C -6.8 °C 1013.1 hPa West 1.6 km/h 3.2 km/h 87% 0 mm 51 W/m2
08:44 -4.9 °C -6.8 °C 1013.1 hPa Calm     87% 0 mm 53 W/m2
08:50 -4.8 °C -6.5 °C 1013.1 hPa Calm     88% 0 mm 69 W/m2
08:56 -4.8 °C -6.6 °C 1013.1 hPa West 1.6 km/h 1.6 km/h 87% 0 mm 69 W/m2
09:02 -4.8 °C -6.6 °C 1013.1 hPa West 1.6 km/h 1.6 km/h 87% 0 mm 65 W/m2
09:08 -4.7 °C -6.6 °C 1013.1 hPa Calm   1.6 km/h 87% 0 mm 76 W/m2
09:14 -4.7 °C -6.5 °C 1013.1 hPa Calm   1.6 km/h 87% 0 mm 86 W/m2
09:20 -4.6 °C -6.6 °C 1013.1 hPa Calm     86% 0 mm 79 W/m2
09:26 -4.5 °C -6.5 °C 1013.1 hPa Calm     86% 0 mm 76 W/m2
09:32 -4.4 °C -6.4 °C 1013.1 hPa Calm     86% 0 mm 121 W/m2
09:38 -4.2 °C -6.4 °C 1013.1 hPa Calm     85% 0 mm 104 W/m2
09:44 -4.2 °C -6.5 °C 1013.1 hPa Calm     84% 0 mm 105 W/m2
09:50 -4.2 °C -6.4 °C 1013.1 hPa Calm   1.6 km/h 84% 0 mm 90 W/m2
09:56 -4.2 °C -6.5 °C 1013.1 hPa Calm   1.6 km/h 84% 0 mm 81 W/m2
10:02 -4.2 °C -6.5 °C 1013.1 hPa Calm     84% 0 mm 98 W/m2
10:08 -4.2 °C -6.4 °C 1013.1 hPa Calm   1.6 km/h 84% 0 mm 107 W/m2
10:20 -4.1 °C -6.3 °C 1013.1 hPa Calm     84% 0 mm 102 W/m2
10:26 -4.1 °C -6.2 °C 1013.1 hPa Calm   1.6 km/h 85% 0 mm 125 W/m2
10:32 -4.1 °C -6.2 °C 1013.1 hPa West 1.6 km/h 1.6 km/h 85% 0 mm 93 W/m2
10:38 -4 °C -6.2 °C 1013.1 hPa Calm   1.6 km/h 85% 0 mm 123 W/m2
10:44 -3.9 °C -6.1 °C 1013.1 hPa Calm   3.2 km/h 85% 0 mm 100 W/m2
10:50 -3.9 °C -6.2 °C 1013.1 hPa WNW 1.6 km/h 1.6 km/h 84% 0 mm 123 W/m2
10:56 -3.8 °C -6.2 °C 1013.1 hPa WNW 1.6 km/h 3.2 km/h 84% 0 mm 132 W/m2
11:02 -3.7 °C -6.2 °C 1013.1 hPa West 1.6 km/h 1.6 km/h 83% 0 mm 132 W/m2
11:08 -3.7 °C -6.2 °C 1013.1 hPa SW 3.2 km/h 6.4 km/h 83% 0 mm 163 W/m2
11:14 -3.6 °C -6.1 °C 1013.1 hPa WSW 3.2 km/h 3.2 km/h 83% 0 mm 179 W/m2
11:20 -3.6 °C -6 °C 1013.1 hPa WSW 1.6 km/h 4.8 km/h 83% 0 mm 169 W/m2
11:26 -3.6 °C -6.1 °C 1013.1 hPa WSW 3.2 km/h 4.8 km/h 83% 0 mm 279 W/m2
11:32 -3.4 °C -5.9 °C 1012.8 hPa WSW 3.2 km/h 4.8 km/h 83% 0 mm 341 W/m2
11:38 -3.2 °C -5.8 °C 1012.8 hPa West 3.2 km/h 4.8 km/h 82% 0 mm 311 W/m2
11:44 -3.1 °C -5.8 °C 1012.8 hPa WSW 3.2 km/h 6.4 km/h 81% 0 mm 297 W/m2
11:50 -3 °C -5.9 °C 1012.8 hPa WNW 3.2 km/h 4.8 km/h 80% 0 mm 257 W/m2
11:56 -2.9 °C -5.9 °C 1012.8 hPa WSW 3.2 km/h 6.4 km/h 80% 0 mm 257 W/m2
12:02 -2.7 °C -5.8 °C 1012.8 hPa West 1.6 km/h 3.2 km/h 79% 0 mm 320 W/m2
12:08 -2.6 °C -5.9 °C 1012.8 hPa NW 3.2 km/h 3.2 km/h 78% 0 mm 309 W/m2
12:14 -2.6 °C -6.1 °C 1012.8 hPa West 4.8 km/h 8 km/h 77% 0 mm 311 W/m2
12:20 -2.6 °C -6.2 °C 1012.8 hPa NW 4.8 km/h 4.8 km/h 76% 0 mm 301 W/m2
12:26 -2.5 °C -6.2 °C 1012.8 hPa WSW 3.2 km/h 4.8 km/h 76% 0 mm 269 W/m2
12:32 -2.4 °C -6.3 °C 1012.8 hPa NW 3.2 km/h 3.2 km/h 75% 0 mm 243 W/m2
12:38 -2.4 °C -6.2 °C 1012.8 hPa WNW 1.6 km/h 6.4 km/h 75% 0 mm 225 W/m2
12:44 -2.5 °C -6.3 °C 1012.8 hPa WSW 3.2 km/h 8 km/h 75% 0 mm 218 W/m2
12:50 -2.5 °C -6.3 °C 1012.4 hPa West 3.2 km/h 3.2 km/h 75% 0 mm 264 W/m2
12:56 -2.3 °C -6.3 °C 1012.4 hPa West 1.6 km/h 4.8 km/h 74% 0 mm 234 W/m2
13:02 -2.4 °C -6.4 °C 1012.1 hPa West 3.2 km/h 4.8 km/h 74% 0 mm 250 W/m2
13:08 -2.6 °C -6.6 °C 1012.4 hPa WNW 4.8 km/h 8 km/h 74% 0 mm 227 W/m2
13:14 -2.5 °C -6.5 °C 1012.1 hPa WSW 3.2 km/h 8 km/h 74% 0 mm 260 W/m2
13:20 -2.3 °C -6.3 °C 1012.1 hPa WSW 1.6 km/h 1.6 km/h 74% 0 mm 250 W/m2
13:26 -2.2 °C -6.4 °C 1012.1 hPa West 1.6 km/h 6.4 km/h 73% 0 mm 258 W/m2
13:32 -2.1 °C -6.3 °C 1012.1 hPa WNW 3.2 km/h 3.2 km/h 73% 2.54 mm 283 W/m2
13:38 -1.7 °C -6.3 °C 1012.1 hPa WNW 3.2 km/h 3.2 km/h 71% 2.54 mm 272 W/m2
13:44 -1.9 °C -6.5 °C 1012.1 hPa West 1.6 km/h 4.8 km/h 71% 1.27 mm 255 W/m2
13:50 -1.9 °C -6.3 °C 1011.7 hPa West 1.6 km/h 1.6 km/h 72% 1.02 mm 216 W/m2
13:56 -1.9 °C -6.5 °C 1012.1 hPa WSW 1.6 km/h 4.8 km/h 71% 1.02 mm 214 W/m2
14:02 -2.2 °C -6.6 °C 1011.7 hPa West 3.2 km/h 8 km/h 72% 1.27 mm 251 W/m2
14:08 -2.1 °C -6.3 °C 1011.7 hPa West 4.8 km/h 8 km/h 73% 1.27 mm 292 W/m2
14:14 -1.5 °C -6.3 °C 1011.7 hPa NW 3.2 km/h 4.8 km/h 70% 1.02 mm 234 W/m2
14:20 -1.9 °C -6.8 °C 1011.7 hPa WNW 1.6 km/h 1.6 km/h 69% 0 mm 227 W/m2
14:26 -1.9 °C -6.6 °C 1011.7 hPa West 1.6 km/h 4.8 km/h 70% 0 mm 174 W/m2
14:32 -1.6 °C -6.5 °C 1011.4 hPa WSW 1.6 km/h 1.6 km/h 69% 0 mm 341 W/m2
14:38 -1.3 °C -6.4 °C 1011.7 hPa West 3.2 km/h 6.4 km/h 68% 1.02 mm 446 W/m2
14:44 -1.7 °C -6.8 °C 1011.7 hPa SW 4.8 km/h 4.8 km/h 68% 1.02 mm 225 W/m2
14:50 -1.8 °C -6.8 °C 1011.7 hPa WSW 3.2 km/h 3.2 km/h 69% 1.02 mm 448 W/m2
14:56 -1.3 °C -6.5 °C 1011.4 hPa WSW 1.6 km/h 3.2 km/h 68% 0 mm 288 W/m2
15:02 -0.9 °C -6.4 °C 1011.7 hPa WSW 1.6 km/h 1.6 km/h 66% 0 mm 443 W/m2
15:08 -0.4 °C -6.4 °C 1011.7 hPa WSW 1.6 km/h 1.6 km/h 64% 0 mm 411 W/m2
15:14 -0.6 °C -6.6 °C 1011.7 hPa West 1.6 km/h 3.2 km/h 64% 0 mm 431 W/m2
15:20 -0.7 °C -6.7 °C 1011.7 hPa West 1.6 km/h 3.2 km/h 64% 1.27 mm 301 W/m2
15:26 -0.9 °C -6.7 °C 1011.7 hPa West 1.6 km/h 3.2 km/h 65% 1.27 mm 216 W/m2
15:32 -0.8 °C -6.4 °C 1011.7 hPa WSW 1.6 km/h 1.6 km/h 66% 0 mm 392 W/m2
15:38 -0.9 °C -6.4 °C 1011.7 hPa WSW 1.6 km/h 1.6 km/h 66% 0 mm 179 W/m2
15:44 -1.2 °C -6.6 °C 1011.7 hPa West 1.6 km/h 4.8 km/h 67% 0 mm 199 W/m2
15:50 -1.4 °C -6.7 °C 1011.4 hPa West 1.6 km/h 1.6 km/h 67% 0 mm 139 W/m2
15:56 -1.7 °C -7 °C 1011.4 hPa Calm   1.6 km/h 67% 0 mm 127 W/m2
16:02 -1.6 °C -6.7 °C 1011.4 hPa Calm     68% 0 mm 234 W/m2
16:08 -1.5 °C -6.7 °C 1011.4 hPa West 1.6 km/h 3.2 km/h 68% 0 mm 281 W/m2
16:14 -1.4 °C -6.6 °C 1011.4 hPa WSW 1.6 km/h 3.2 km/h 68% 0 mm 149 W/m2
16:20 -1.6 °C -6.7 °C 1011.4 hPa WSW 1.6 km/h 1.6 km/h 68% 0 mm 146 W/m2
16:26 -1.6 °C -6.8 °C 1011.4 hPa WSW 1.6 km/h 1.6 km/h 68% 0 mm 67 W/m2
16:32 -1.8 °C -6.9 °C 1011.1 hPa Calm   1.6 km/h 68% 0 mm 47 W/m2
16:38 -1.9 °C -6.9 °C 1011.4 hPa Calm   1.6 km/h 69% 0 mm 40 W/m2
16:44 -2.1 °C -6.8 °C 1011.4 hPa Calm     70% 0 mm 44 W/m2
16:50 -2.2 °C -6.9 °C 1011.4 hPa Calm     70% 0 mm 40 W/m2
16:56 -2.2 °C -6.9 °C 1011.4 hPa Calm     70% 0 mm 39 W/m2
17:02 -2.3 °C -7 °C 1011.4 hPa Calm     70% 0 mm 40 W/m2
17:08 -2.4 °C -6.9 °C 1011.7 hPa Calm     71% 0 mm 32 W/m2
17:14 -2.5 °C -7.1 °C 1011.7 hPa Calm     71% 0 mm 25 W/m2
17:20 -2.7 °C -7.1 °C 1011.7 hPa Calm     72% 0 mm 16 W/m2
17:26 -3 °C -7.2 °C 1011.7 hPa Calm     73% 0 mm 11 W/m2
17:32 -3.2 °C -7.2 °C 1011.7 hPa Calm     74% 0 mm 5 W/m2
17:38 -3.5 °C -7.4 °C 1011.4 hPa Calm     74% 0 mm 0 W/m2
17:44 -3.7 °C -7.5 °C 1011.4 hPa Calm     75% 0 mm 0 W/m2
17:50 -4.1 °C -7.8 °C 1011.4 hPa Calm     75% 0 mm 0 W/m2
17:56 -4.3 °C -7.9 °C 1011.4 hPa Calm     76% 0 mm 0 W/m2
18:02 -4.7 °C -8.1 °C 1011.4 hPa Calm     77% 0 mm 0 W/m2
18:08 -4.9 °C -8.2 °C 1011.1 hPa Calm     78% 0 mm 0 W/m2
18:14 -5 °C -8.1 °C 1011.1 hPa Calm     79% 0 mm 0 W/m2
18:20 -5.2 °C -8.2 °C 1011.1 hPa Calm     79% 0 mm 0 W/m2
18:26 -5.3 °C -8.2 °C 1011.1 hPa Calm     80% 0 mm 0 W/m2
18:32 -5.5 °C -8.2 °C 1011.1 hPa Calm     81% 0 mm 0 W/m2
18:38 -5.7 °C -8.4 °C 1011.1 hPa Calm     81% 0 mm 0 W/m2
18:44 -5.9 °C -8.6 °C 1011.1 hPa Calm     81% 0 mm 0 W/m2
18:50 -6 °C -8.6 °C 1011.1 hPa Calm     82% 0 mm 0 W/m2
18:56 -6.1 °C -8.7 °C 1011.1 hPa Calm     82% 0 mm 0 W/m2
19:02 -6.2 °C -8.8 °C 1011.1 hPa Calm     82% 0 mm 0 W/m2
19:08 -6.2 °C -8.6 °C 1011.1 hPa Calm     83% 0 mm 0 W/m2
19:14 -6.2 °C -8.6 °C 1011.1 hPa Calm     83% 0 mm 0 W/m2
19:20 -6.2 °C -8.8 °C 1011.1 hPa Calm     82% 0 mm 0 W/m2
19:26 -6.3 °C -8.9 °C 1011.1 hPa Calm     82% 0 mm 0 W/m2
19:32 -6.6 °C -9.1 °C 1011.4 hPa Calm     82% 0 mm 0 W/m2
19:38 -6.8 °C -9.3 °C 1011.4 hPa Calm     82% 0 mm 0 W/m2
19:44 -6.9 °C -9.3 °C 1011.4 hPa Calm     83% 0 mm 0 W/m2
19:50 -7.1 °C -9.5 °C 1011.4 hPa Calm     83% 0 mm 0 W/m2
19:56 -7.1 °C -9.2 °C 1011.7 hPa Calm     85% 0 mm 0 W/m2
20:02 -7.2 °C -9.4 °C 1011.4 hPa Calm     84% 0 mm 0 W/m2
20:08 -7.4 °C -9.7 °C 1011.4 hPa Calm     84% 0 mm 0 W/m2
20:14 -7.6 °C -9.7 °C 1011.1 hPa Calm     85% 0 mm 0 W/m2
20:20 -7.7 °C -9.8 °C 1011.1 hPa Calm     85% 0 mm 0 W/m2
20:26 -7.5 °C -9.4 °C 1011.1 hPa Calm     86% 0 mm 0 W/m2
20:32 -7.6 °C -9.3 °C 1011.1 hPa Calm     87% 0 mm 0 W/m2
20:38 -7.7 °C -9.6 °C 1011.1 hPa Calm     86% 0 mm 0 W/m2
20:44 -7.9 °C -9.7 °C 1011.1 hPa Calm     87% 0 mm 0 W/m2
20:50 -7.9 °C -9.7 °C 1010.7 hPa Calm     87% 0 mm 0 W/m2
20:58 -8.1 °C -9.8 °C 1010.7 hPa Calm     87% 0 mm 0 W/m2
21:04 -8.1 °C -9.7 °C 1011.1 hPa Calm     88% 0 mm 0 W/m2
21:10 -8.2 °C -9.8 °C 1010.7 hPa Calm     88% 0 mm 0 W/m2
21:16 -8.4 °C -10.2 °C 1010.4 hPa Calm     87% 0 mm 0 W/m2
21:22 -8.3 °C -9.9 °C 1010.4 hPa Calm     88% 0 mm 0 W/m2
21:28 -8.2 °C -9.8 °C 1010.4 hPa Calm     88% 0 mm 0 W/m2
21:34 -8.3 °C -9.9 °C 1010.4 hPa Calm     88% 0 mm 0 W/m2
21:40 -8.4 °C -10 °C 1010 hPa Calm     88% 0 mm 0 W/m2
21:46 -8.4 °C -10.1 °C 1010 hPa Calm     88% 0 mm 0 W/m2
21:52 -8.7 °C -10.3 °C 1010 hPa Calm     88% 0 mm 0 W/m2
21:58 -8.4 °C -9.9 °C 1010 hPa Calm   1.6 km/h 89% 0 mm 0 W/m2
22:04 -8.5 °C -10.1 °C 1010 hPa Calm     88% 0 mm 0 W/m2
22:10 -8.4 °C -9.9 °C 1010 hPa Calm     89% 0 mm 0 W/m2
22:16 -8.3 °C -9.8 °C 1010 hPa Calm   1.6 km/h 89% 0 mm 0 W/m2
22:22 -8.3 °C -9.9 °C 1010 hPa Calm     88% 0 mm 0 W/m2
22:28 -8.1 °C -9.7 °C 1010 hPa Calm     88% 0 mm 0 W/m2
22:34 -8 °C -9.5 °C 1010 hPa Calm   1.6 km/h 89% 0 mm 0 W/m2
22:40 -8.1 °C -9.7 °C 1010 hPa NE 1.6 km/h 1.6 km/h 88% 0 mm 0 W/m2
22:46 -8.1 °C -9.7 °C 1010 hPa Calm   1.6 km/h 88% 0 mm 0 W/m2
22:52 -8.3 °C -10.1 °C 1009.7 hPa Calm     87% 0 mm 0 W/m2
22:58 -8.4 °C -10.2 °C 1009.7 hPa Calm   1.6 km/h 87% 0 mm 0 W/m2
23:04 -8.5 °C -10.3 °C 1009.7 hPa Calm     87% 0 mm 0 W/m2
23:12 -8.4 °C -10 °C 1009.7 hPa NE 1.6 km/h 1.6 km/h 88% 0 mm 0 W/m2
23:18 -8.3 °C -10.1 °C 1009.7 hPa NE 1.6 km/h 1.6 km/h 87% 0 mm 0 W/m2
23:24 -8.6 °C -10.3 °C 1009.7 hPa Calm   1.6 km/h 87% 0 mm 0 W/m2
23:30 -8.6 °C -10.4 °C 1009.7 hPa Calm     87% 0 mm 0 W/m2
23:36 -8.7 °C -10.5 °C 1009.4 hPa Calm     87% 0 mm 0 W/m2
23:42 -8.6 °C -10.2 °C 1009.4 hPa Calm     88% 0 mm 0 W/m2
23:48 -8.6 °C -10.2 °C 1009.4 hPa Calm   1.6 km/h 88% 0 mm 0 W/m2
23:54 -8.6 °C -10.2 °C 1009.7 hPa Calm   1.6 km/h 88% 0 mm 0 W/m2
Country Meadow, Clay, NY, USA
Compliments of Weather Underground - 2 mb